GEFSSE_500_meanwind_288.txt.gz
Wind_Speed
7 6 6 5 6 7 7 8 8 8 8 8 7 7 7 8 8 7 7 6 6 7 7 8 8 8 8 7 7 7 6 5 5 4 5 5 5 4 4 3 3 2 3
7 6 6 5 6 7 7 8 8 8 8 8 8 8 8 8 8 7 7 7 6 7 7 7 7 8 7 7 7 7 6 5 4 4 4 5 5 5 4 3 3 3 3
8 7 6 6 6 7 7 8 8 8 9 9 9 9 8 8 8 8 8 8 7 7 7 7 7 7 7 7 7 6 6 5 5 4 4 4 4 4 4 3 3 2 3
8 7 7 7 7 8 9 9 9 9 9 9 9 9 8 8 9 8 7 7 7 7 7 6 6 6 6 6 5 5 5 5 4 4 3 3 3 3 3 3 3 3 2
9 8 9 9 9 9 9 9 9 10 9 9 9 9 8 8 7 7 7 8 8 7 7 6 6 6 5 5 5 5 4 4 4 4 3 3 3 3 3 3 2 2 2
10 9 10 10 10 9 10 10 10 10 10 9 8 8 8 7 7 7 7 8 8 7 7 6 5 6 5 4 4 4 4 4 4 3 3 2 2 2 2 2 2 2 2
11 11 11 10 10 10 11 10 10 10 10 10 9 9 8 7 7 7 6 6 7 6 5 5 4 4 4 4 3 4 4 4 3 3 3 2 2 2 2 2 2 1 1
13 12 12 13 13 12 11 10 10 10 10 9 9 9 8 7 7 6 6 5 5 5 4 3 3 4 3 3 3 4 3 4 4 2 2 2 2 3 2 1 1 1 1
14 14 13 14 13 12 11 11 10 10 10 9 9 8 8 7 6 6 5 5 4 4 3 3 3 3 3 3 2 3 3 4 4 3 2 3 3 3 2 2 1 1 1
15 15 15 14 14 12 12 12 11 10 10 9 9 8 7 7 6 6 5 4 4 3 4 3 3 3 3 3 3 3 4 4 3 2 3 3 3 3 3 2 2 2 1
15 15 14 14 14 13 13 12 12 10 10 9 9 8 8 7 6 5 4 4 4 4 4 4 4 3 4 5 5 5 5 4 3 3 4 3 3 3 3 3 3 2 2
15 15 14 14 14 13 13 12 11 11 10 9 9 8 7 6 5 4 3 4 4 4 3 3 3 4 4 5 5 6 5 4 4 4 4 4 4 4 4 3 3 4 4
15 15 14 14 13 13 13 12 11 11 10 9 9 7 6 5 4 3 3 3 3 3 3 3 3 3 4 5 6 7 6 6 6 5 5 5 5 5 5 5 5 5 6
14 14 13 13 13 13 12 11 10 10 9 8 7 6 5 5 4 2 2 3 2 2 2 3 3 3 4 5 6 6 6 6 6 5 5 5 6 6 6 6 6 6 6
14 14 13 13 12 12 11 11 10 9 8 7 6 5 5 5 4 3 3 3 2 1 2 2 2 3 4 4 4 5 6 6 6 6 6 7 7 7 7 7 7 7 7
14 13 13 12 12 12 11 10 9 9 8 7 6 5 5 4 4 4 3 2 1 0 2 3 2 3 3 2 3 4 6 7 6 6 6 7 7 8 8 8 8 8 8
14 13 13 12 11 10 10 9 9 8 7 7 6 6 5 5 4 3 2 2 1 1 2 3 2 3 3 3 4 4 5 7 6 6 7 7 7 7 7 8 8 8 8
13 13 12 12 11 10 9 8 8 7 7 6 6 6 5 4 3 2 1 1 1 1 2 1 2 3 3 4 4 5 5 5 6 7 7 7 7 8 8 9 8 8 9
12 12 12 12 12 11 10 8 7 6 6 6 5 5 4 4 3 2 2 2 2 2 2 2 3 3 3 4 4 4 4 5 5 6 7 7 7 8 8 8 8 9 9
11 11 11 11 11 11 10 9 7 6 6 6 6 5 4 3 3 3 2 2 2 2 2 2 3 3 4 4 4 5 5 6 6 7 7 8 7 8 8 9 10 10 10
11 11 11 11 11 11 10 9 8 7 6 6 6 5 4 3 3 2 2 3 2 2 2 3 3 4 4 4 5 5 5 6 6 7 7 7 8 9 9 10 10 10 11
11 11 11 11 11 10 10 10 9 7 6 6 5 5 4 4 4 3 3 3 3 3 3 3 4 4 4 5 5 6 6 7 7 8 8 9 10 10 10 10 11 10 11
10 10 10 10 10 10 9 9 8 7 6 5 5 5 4 4 4 3 3 3 3 3 4 4 4 4 5 6 6 7 7 8 8 9 9 10 10 10 11 11 11 12 12
8 9 9 10 10 9 9 8 8 7 6 5 5 5 5 5 4 4 4 4 4 4 4 5 5 6 6 6 6 6 8 8 9 9 9 9 10 10 11 11 12 12 13
7 7 8 8 9 10 10 9 9 8 7 6 5 5 5 5 5 5 5 5 5 5 5 5 6 6 7 6 6 7 7 8 8 9 9 10 10 11 11 11 12 13 13
6 6 6 7 8 9 9 10 9 9 9 8 6 5 5 5 6 6 6 6 6 6 6 6 6 6 7 7 7 8 9 9 9 10 10 10 11 11 12 12 12 13 14

GEFSSE_500_meanwind_294.txt.gz
Wind_Speed
7 7 8 8 8 9 10 11 11 11 11 11 11 11 11 10 9 9 9 9 8 8 9 9 9 8 8 7 7 7 6 5 5 5 4 4 4 3 3 3 3 3 3
7 7 7 8 8 10 11 12 11 11 11 11 12 12 11 10 9 9 9 9 9 8 8 8 8 8 8 8 8 7 6 5 5 5 5 4 3 3 3 3 3 3 3
7 7 7 7 8 10 11 12 12 12 11 11 12 12 11 10 10 10 9 8 8 8 8 8 7 7 8 7 7 6 5 5 6 6 5 4 4 4 4 3 3 3 3
8 7 7 7 8 9 11 12 12 11 11 11 11 11 11 10 10 10 9 8 7 7 7 8 7 7 8 7 6 6 6 6 6 5 4 4 4 3 3 3 4 3 3
9 9 9 8 8 10 11 12 11 11 11 11 11 11 10 10 10 11 9 8 7 7 6 7 7 7 7 6 6 6 6 5 5 4 4 3 3 3 3 2 3 2 2
10 9 9 9 9 10 11 12 11 11 11 10 11 11 11 10 10 10 9 8 8 7 6 6 6 7 7 7 6 5 4 4 4 3 3 3 3 3 3 2 2 1 1
11 10 10 10 10 11 11 11 10 11 10 10 10 10 9 9 9 9 8 8 7 6 6 6 5 5 6 6 6 5 4 4 4 3 3 3 3 3 2 2 2 1 1
11 10 10 10 10 11 10 10 11 10 10 10 9 9 8 8 8 9 9 7 7 6 6 5 4 5 6 7 6 5 5 4 4 3 3 3 3 3 2 2 2 2 1
11 11 10 10 10 10 10 10 10 11 10 10 9 9 8 7 7 8 7 7 5 5 5 4 3 4 5 6 6 5 6 5 4 3 4 4 3 3 2 2 2 2 2
11 10 10 10 10 10 10 11 11 11 10 9 9 9 7 7 7 6 6 5 6 5 5 4 3 3 4 4 5 6 6 5 4 4 4 4 3 3 3 3 3 3 3
10 10 10 10 10 10 10 11 11 10 10 9 9 8 8 7 7 6 6 5 5 5 4 3 4 3 2 3 5 6 6 5 5 4 4 4 4 3 3 3 3 3 4
11 11 11 11 10 11 11 11 10 9 10 10 9 8 7 6 6 6 6 5 4 4 3 3 3 3 3 4 5 6 6 5 5 4 4 5 4 4 4 4 4 4 5
12 12 11 11 11 11 10 10 10 9 9 9 9 7 6 6 5 5 5 4 3 3 3 1 2 2 4 4 4 5 6 6 5 5 5 5 5 5 5 5 5 5 6
12 12 12 11 11 10 9 9 9 9 8 7 6 6 5 5 4 4 3 3 2 2 2 2 1 2 4 4 3 4 3 4 5 5 4 5 6 6 6 6 7 6 7
11 11 11 10 10 9 8 8 8 8 7 6 5 5 5 4 4 3 2 2 2 1 1 2 2 2 3 3 2 3 3 4 5 6 6 6 6 6 7 8 8 9 8
10 10 9 9 9 9 8 7 7 7 6 6 5 5 5 4 3 2 2 1 1 1 1 2 2 3 3 3 3 4 6 5 5 7 7 7 7 7 7 8 8 9 9
9 9 9 8 8 8 7 7 6 6 5 5 5 5 4 3 3 3 2 1 0 1 2 2 3 4 4 3 4 4 5 6 7 7 8 7 7 7 7 8 8 9 9
9 9 9 8 8 7 7 6 6 5 5 5 4 4 3 3 3 2 1 1 1 2 2 3 3 3 3 3 4 5 5 6 6 7 7 7 8 8 8 9 9 9 9
8 8 8 7 7 7 6 6 5 4 4 3 3 3 2 2 1 1 1 2 3 3 3 3 3 3 3 4 5 5 6 6 6 6 6 7 7 8 9 9 9 9 9
9 9 8 8 7 6 6 5 5 4 3 3 3 2 2 2 1 2 2 3 3 4 3 3 3 3 4 4 5 5 6 6 7 6 7 8 8 8 9 10 10 9 9
9 8 8 8 7 7 6 6 5 5 4 4 3 2 2 2 2 2 3 3 4 4 4 4 4 4 5 5 6 6 7 7 8 8 8 9 9 9 10 10 10 10 10
9 8 8 8 7 6 6 6 5 4 4 4 3 2 2 3 3 3 4 4 5 4 4 5 5 5 5 5 6 7 8 9 9 9 9 9 9 9 10 10 11 11 10
8 8 6 6 6 6 5 4 4 4 4 4 4 4 4 4 4 4 5 4 5 5 5 5 5 6 6 6 6 7 8 9 9 10 10 9 10 10 10 10 10 11 11
6 7 7 6 5 5 4 4 4 4 4 5 5 5 5 4 4 5 5 5 5 5 5 5 6 6 7 7 7 7 8 8 9 9 9 10 11 11 11 11 11 11 12
5 5 6 7 6 5 5 5 4 5 5 5 6 6 5 5 5 5 5 5 5 6 6 6 6 7 7 8 8 8 8 9 9 10 10 11 11 12 12 12 13 13 12
4 5 5 5 6 6 6 6 6 6 6 6 7 6 6 5 5 5 5 5 6 6 7 7 7 8 8 9 9 9 9 9 10 11 11 11 11 12 12 13 13 13 14

GEFSSE_500_meanwind_300.txt.gz
Wind_Speed
4 4 5 5 5 6 7 7 7 7 8 7 7 7 7 8 8 7 7 6 7 7 5 5 5 4 4 4 3 4 5 5 5 5 5 5 5 5 5 5 5 5 5
4 4 4 4 4 5 7 8 7 7 8 7 7 7 7 7 7 7 7 6 6 6 5 5 5 4 4 3 3 3 4 5 5 5 5 5 5 5 4 5 6 6 5
5 4 4 4 4 5 6 7 7 7 7 7 7 7 8 8 7 7 6 7 6 6 5 5 5 4 4 4 4 3 4 5 5 5 5 5 5 4 4 5 5 5 5
5 4 4 3 4 4 6 6 6 7 7 8 8 7 7 7 6 6 5 6 5 5 5 5 5 4 4 4 4 3 3 4 4 4 4 4 4 3 4 4 4 4 4
5 5 4 4 4 5 6 7 7 7 7 8 8 7 7 6 6 6 6 5 4 4 4 4 4 4 4 4 4 3 3 3 3 3 2 3 3 2 3 4 4 4 3
5 5 4 4 4 5 7 7 7 7 7 7 7 7 6 6 5 6 4 3 4 4 4 3 4 4 3 3 3 3 2 2 2 2 1 1 1 1 2 2 2 2 2
5 5 4 5 5 6 6 7 7 7 7 7 6 6 6 6 5 4 3 2 2 3 3 3 4 4 3 2 2 3 2 2 1 0 0 0 0 0 0 1 1 1 0
6 5 5 6 6 6 6 6 7 7 7 6 6 5 6 5 5 5 3 2 2 1 1 3 3 3 2 2 2 2 3 2 1 1 1 1 1 1 1 1 1 0 0
6 6 6 6 6 6 5 5 6 6 6 6 5 5 5 4 5 4 3 3 2 1 0 1 2 2 2 1 1 2 2 3 2 1 1 1 1 1 2 2 1 1 1
6 5 6 6 6 6 5 5 5 5 5 5 5 5 4 3 3 4 3 2 1 1 1 0 1 0 0 1 2 2 3 3 2 2 2 1 1 2 2 2 2 1 1
7 6 6 6 6 6 5 5 5 5 4 4 4 3 3 3 3 3 3 2 1 2 2 2 1 1 1 2 2 3 3 2 2 2 2 2 2 2 3 3 3 3 3
9 7 7 7 6 6 6 6 5 4 4 3 3 3 2 3 3 2 2 2 2 2 3 2 2 2 2 3 2 2 3 3 2 3 3 3 3 3 3 4 4 5 4
10 8 8 7 6 6 6 7 6 5 4 3 3 3 2 2 1 1 1 1 2 3 3 3 3 3 3 3 2 2 3 3 3 3 3 3 4 4 4 5 5 5 5
10 9 9 9 8 7 7 7 6 5 5 4 4 3 2 1 1 1 1 1 2 3 4 4 5 5 3 4 3 3 3 3 3 4 4 4 4 4 4 5 6 6 6
9 9 9 9 8 7 6 6 6 5 4 4 3 2 2 1 1 2 2 3 3 4 4 5 5 5 4 4 3 3 4 4 4 4 4 5 5 5 6 6 7 7 7
9 9 9 8 8 7 6 6 5 5 4 3 3 3 2 1 1 2 3 3 4 4 4 5 5 4 4 4 4 4 4 5 5 5 4 5 6 6 6 7 8 8 8
9 9 8 8 8 7 7 6 5 5 4 3 3 3 3 3 3 4 4 4 4 4 5 5 4 4 5 5 4 4 5 6 6 5 6 6 7 8 8 8 9 9 9
8 8 7 7 7 7 7 6 5 4 4 4 3 3 3 4 4 5 4 4 5 5 6 6 6 5 5 5 5 5 5 5 6 6 6 6 8 9 9 9 9 9 9
8 7 7 7 7 7 6 5 5 4 4 3 3 3 4 4 5 5 4 5 5 6 6 7 6 5 5 5 5 5 5 5 6 7 7 8 9 9 8 9 9 8 9
8 7 7 7 7 6 6 6 5 4 4 3 3 4 4 5 5 5 6 6 6 6 6 6 6 5 5 5 5 6 6 6 7 7 8 8 8 9 9 9 9 9 9
8 7 7 7 7 7 7 6 6 5 5 5 5 5 5 5 6 6 6 7 7 7 6 6 6 6 6 6 6 6 7 7 7 7 8 8 9 9 9 9 9 9 10
9 7 6 6 6 6 6 6 5 5 5 6 6 6 6 5 6 7 7 8 8 7 7 6 7 7 8 8 8 8 8 8 8 8 8 9 10 10 9 9 9 9 10
8 8 7 6 6 6 5 5 5 5 6 6 6 6 6 6 6 7 8 8 8 7 7 7 8 8 9 9 9 9 8 8 9 9 9 9 10 10 11 10 10 11 10
8 8 8 7 6 6 5 6 6 5 5 6 7 6 6 7 7 7 8 9 9 9 8 8 9 9 9 10 10 10 10 10 10 10 10 10 10 10 10 10 11 11 10
7 7 8 8 7 7 6 6 6 6 6 7 7 7 7 7 7 8 9 9 9 9 9 9 10 10 10 11 11 11 11 11 11 11 10 10 11 11 11 11 11 11 12
7 7 8 8 9 8 8 8 8 8 7 8 8 8 8 8 8 9 9 9 9 9 9 10 11 11 11 12 12 12 12 12 12 12 12 11 11 11 11 12 12 12 13

GEFSSE_500_meanwind_306.txt.gz
Wind_Speed
7 7 7 6 7 7 7 6 6 6 6 6 6 6 6 6 5 5 5 5 6 6 6 5 5 5 5 5 5 5 4 4 4 4 4 4 3 4 4 5 5 4 3
6 7 8 8 7 7 7 7 7 6 6 7 7 6 6 6 5 5 4 5 6 6 5 5 6 5 5 5 5 5 5 5 4 4 5 4 3 4 4 4 4 4 4
7 7 7 8 7 7 7 7 7 7 7 7 6 6 6 5 5 5 5 5 5 5 5 5 6 5 5 6 6 5 5 4 5 4 4 3 3 3 4 4 4 3 3
7 7 7 7 7 7 7 7 7 7 7 7 7 6 6 6 5 5 5 5 5 5 5 4 4 5 5 5 4 4 4 4 4 3 3 3 3 3 3 3 3 3 3
8 7 7 7 7 7 6 6 6 7 7 7 7 6 6 5 5 5 5 5 5 5 4 4 4 4 4 3 3 4 4 4 3 3 2 3 3 3 3 3 3 3 3
8 7 7 6 6 6 6 7 7 7 7 7 7 7 6 5 5 5 5 5 4 4 3 3 3 4 4 3 3 3 3 3 3 2 2 3 3 3 2 2 2 2 2
8 8 7 6 6 7 7 7 8 8 7 7 7 7 7 6 6 6 5 5 5 5 4 2 2 3 3 2 2 2 3 3 3 2 2 2 2 2 2 2 2 2 2
8 8 7 7 7 7 7 7 7 8 7 7 6 7 7 6 6 6 6 5 5 4 4 3 2 3 3 2 1 2 2 2 2 2 2 3 2 2 1 1 1 1 2
8 8 8 7 7 7 7 6 6 6 6 6 5 6 6 5 6 6 6 5 5 4 3 2 2 3 2 1 0 1 2 2 2 2 2 2 2 2 2 1 1 1 1
9 8 8 7 7 7 7 7 7 6 6 5 6 6 5 5 5 5 5 4 4 4 3 2 2 2 2 1 1 0 1 1 3 2 2 1 2 2 2 2 2 1 1
9 9 8 8 7 7 7 7 7 6 5 5 5 5 5 4 4 4 3 3 3 4 3 2 3 2 3 2 1 1 1 1 3 2 0 1 1 2 3 3 3 2 2
10 9 9 8 8 7 7 7 7 6 6 6 5 5 5 4 4 4 3 3 3 4 3 2 3 3 3 2 2 1 1 2 3 2 1 1 2 2 3 4 4 4 3
10 10 10 9 8 8 6 7 7 7 6 5 5 5 4 4 4 4 4 3 3 4 4 3 4 4 3 3 2 1 2 2 3 3 2 3 3 3 4 5 5 4 4
10 11 10 10 9 7 7 7 6 6 5 5 4 4 4 4 4 5 4 3 3 3 3 4 4 4 3 3 2 2 3 3 4 4 4 4 4 4 5 5 6 5 5
11 10 9 9 9 8 7 7 6 6 6 5 5 4 4 4 4 5 5 4 4 4 4 4 3 2 2 3 3 3 3 4 4 5 5 5 5 5 6 6 6 6 7
11 10 10 9 9 9 8 7 6 6 6 5 5 4 4 4 4 4 4 4 4 4 4 4 3 3 2 3 4 4 5 4 4 5 5 6 5 6 7 7 7 7 8
10 10 9 10 10 9 9 8 7 7 6 5 5 5 4 4 4 4 4 4 4 4 4 4 4 4 3 4 4 5 4 4 4 4 5 6 7 7 7 7 7 8 8
9 9 9 10 9 9 9 9 9 8 6 5 5 5 5 5 4 4 4 4 4 4 4 4 5 4 4 5 5 5 5 4 4 4 6 7 8 8 8 8 7 7 8
9 9 9 9 9 9 9 9 8 7 6 5 5 5 4 4 4 4 4 4 4 4 4 4 5 4 5 5 5 5 5 5 4 5 7 8 8 8 8 8 8 9 8
9 8 8 8 8 8 8 7 7 6 6 5 4 3 3 3 4 4 4 4 4 4 5 5 5 5 6 6 5 5 6 6 6 7 8 8 8 9 9 9 10 9 9
9 8 8 7 7 7 7 6 6 5 5 5 5 4 4 4 4 4 4 4 5 4 4 5 5 6 6 6 5 5 6 7 7 7 8 8 9 9 9 10 11 10 9
9 8 7 6 6 6 7 6 6 6 5 5 6 5 5 5 5 4 4 4 5 5 4 5 5 6 6 6 6 6 7 7 8 7 7 8 8 8 9 10 10 10 10
9 9 8 7 7 6 5 5 5 5 5 5 5 6 5 5 5 5 5 6 5 5 5 6 6 6 7 6 6 7 7 7 7 7 8 8 9 9 9 10 11 11 11
8 8 8 8 7 6 5 5 4 4 5 5 6 6 5 5 5 5 6 6 6 6 6 7 7 7 7 7 7 8 8 9 9 8 8 9 9 10 10 10 11 11 12
7 7 7 7 7 7 7 6 5 5 5 6 5 5 5 5 5 6 6 7 7 7 7 8 8 8 8 8 8 8 9 9 10 10 10 11 11 11 11 11 12 12 13
6 6 6 6 6 6 7 7 6 6 6 6 6 6 6 6 6 6 7 7 7 8 8 9 9 9 9 9 9 10 10 10 11 11 11 11 12 12 12 12 13 13 13

GEFSSE_500_meanwind_312.txt.gz
Wind_Speed
9 9 9 9 9 8 8 9 9 9 8 8 8 7 7 6 6 6 5 6 6 5 5 5 4 4 4 4 4 3 3 2 2 2 2 2 2 3 2 3 3 3 2
9 9 8 9 9 9 9 9 8 8 8 8 7 7 7 6 6 6 6 6 6 6 6 4 5 5 5 4 4 3 2 2 2 1 1 1 2 2 2 2 1 2 2
9 8 9 9 9 9 9 9 9 9 9 8 8 7 7 6 6 7 7 7 7 6 5 4 4 4 4 4 3 3 2 1 1 1 1 1 1 1 1 1 1 1 2
8 9 9 9 9 10 10 9 9 9 9 9 8 8 7 7 7 7 8 7 7 6 5 5 4 4 4 3 2 2 1 1 1 1 1 1 1 1 1 1 1 1 1
8 9 9 9 10 11 10 9 9 9 10 10 9 9 8 7 8 7 7 7 7 6 6 5 4 4 3 2 1 1 1 1 1 1 1 0 0 1 1 1 2 2 1
8 9 9 9 10 10 10 9 9 9 9 9 9 9 8 8 8 7 7 6 6 6 5 4 4 3 2 1 1 2 2 1 1 1 1 1 1 1 2 2 2 2 2
8 9 9 9 9 9 9 9 8 8 8 9 8 8 8 8 8 8 7 6 6 5 4 4 4 3 2 1 0 2 2 2 2 2 2 2 1 1 2 2 3 3 3
9 8 9 8 9 9 9 9 8 8 8 8 8 8 8 8 8 8 7 7 6 4 4 3 3 3 2 1 0 1 1 2 2 2 2 1 1 1 2 3 3 3 4
9 9 9 10 9 9 9 9 8 8 8 7 7 8 8 7 7 7 7 7 5 4 4 3 3 2 2 1 1 1 1 1 1 1 1 1 2 1 1 2 3 3 4
9 9 10 10 9 9 9 9 8 8 7 7 8 7 7 7 6 7 6 6 5 4 4 4 4 2 3 3 2 2 2 2 2 2 2 2 2 2 2 2 2 3 4
9 10 10 10 9 8 7 8 7 7 6 7 7 6 6 6 6 5 5 5 5 4 4 3 3 3 3 3 2 2 2 3 2 2 2 2 3 3 3 3 3 4 4
9 9 9 9 8 7 7 7 7 7 6 6 6 5 5 5 5 4 4 4 4 3 3 3 3 4 4 3 2 2 2 2 3 2 3 3 4 4 4 4 5 5 5
8 8 8 8 7 7 7 7 7 7 6 5 5 5 4 4 4 4 4 4 3 3 3 3 3 4 4 3 2 2 2 2 3 3 3 3 4 5 5 6 6 6 6
8 8 8 8 8 8 7 7 6 6 5 4 4 4 4 4 3 3 3 3 3 3 2 3 3 3 3 3 3 3 3 4 3 4 4 4 5 6 7 7 7 7 7
8 8 8 8 8 7 6 6 6 5 4 4 3 4 4 3 3 3 2 2 2 2 2 3 3 3 3 3 4 4 3 4 3 4 5 6 7 8 8 8 7 7 8
8 8 8 8 7 7 6 6 5 4 4 4 4 4 4 3 3 3 2 2 1 1 2 3 3 3 3 4 5 4 5 4 5 6 6 7 8 8 8 8 8 8 9
9 8 8 7 7 7 7 6 5 4 4 4 4 4 3 3 3 2 1 2 2 2 3 3 3 3 4 4 5 5 6 6 7 8 8 8 8 9 9 9 9 9 9
9 8 8 8 7 7 7 6 5 4 4 5 5 4 3 3 2 2 2 2 2 3 3 4 4 4 5 5 6 6 7 7 8 9 8 8 9 9 10 10 10 9 10
9 8 8 8 6 6 5 5 4 3 3 4 4 3 3 3 2 2 3 2 3 4 4 5 5 6 6 6 7 6 7 8 10 9 9 9 10 10 10 11 10 10 9
8 7 6 7 7 6 5 4 3 2 3 3 3 2 2 3 3 3 3 3 4 4 5 6 6 7 7 8 7 7 8 9 10 9 9 10 10 10 10 10 10 10 10
7 6 5 5 5 5 4 3 3 3 3 3 3 2 2 2 2 3 3 4 4 5 6 6 7 8 9 8 7 7 8 9 10 10 10 10 10 10 10 10 11 11 10
6 5 5 4 4 3 3 3 3 3 3 3 3 3 3 2 3 3 4 5 5 6 7 8 9 9 9 8 8 8 8 8 9 10 10 10 10 11 11 11 11 12 12
5 4 4 3 3 2 2 2 2 2 2 3 4 4 3 3 4 4 6 6 6 7 9 9 9 9 9 8 8 9 9 9 10 10 10 10 11 11 11 11 12 13 13
4 4 4 3 2 2 2 2 1 1 2 3 4 4 4 4 5 5 6 7 8 8 9 9 9 9 9 10 9 9 10 10 11 11 11 11 12 13 13 13 13 13 13
4 4 5 5 4 3 3 2 1 1 2 3 4 5 5 5 6 7 7 8 9 10 10 10 10 10 10 11 11 11 11 11 12 12 12 13 13 13 14 14 14 13 14
4 4 5 5 4 3 3 3 2 3 3 4 5 6 6 7 7 8 8 9 10 10 10 11 11 11 11 12 12 12 13 13 13 14 14 14 15 14 14 14 14 14 15